Carmi, IL

9:25 AM CDT on March 27, 2017 (GMT -0500)
Carmi Municipal

Weather History for KCUL - June, 2013

Change the Weather History Date:

Wednesday, June 26, 2013

  Actual Average (KEHR) Record (KEHR)
Temperature  
Mean Temperature 82 °F -  
Max Temperature 91 °F 88 °F 103 °F (1954)
Min Temperature 73 °F 65 °F 50 °F (1974)
Cooling Degree Days 17    
Growing Degree Days 32 (Base 50)    
Moisture  
Dew Point 72 °F    
Average Humidity 76    
Maximum Humidity 92    
Minimum Humidity 54    
Precipitation  
Precipitation 0.12 in - - ()
Sea Level Pressure  
Sea Level Pressure 29.84 in    
Wind  
Wind Speed 9 mph (SSW)    
Max Wind Speed 23 mph    
Max Gust Speed 31 mph    
Visibility 10 miles    
Events Rain , Thunderstorm    
Averages and records for this station are not official NWS values.
T = Trace of Precipitation, MM = Missing Value Source: NWS Daily Summary

Daily Weather History Graph

Daily Weather History Graph

Search for Another Location

Airport or City:

Trip Planner

Search our weather history database for the weather conditions in past years. The results will help you decide how hot, cold, wet, or windy it might be!

Date:

Astronomy

Jun. 26, 2013 Rise Set
Actual Time 5:31 AM CDT 8:19 PM CDT
Civil Twilight 4:59 AM CDT 8:50 PM CDT
Nautical Twilight 4:20 AM CDT 9:30 PM CDT
Astronomical Twilight 3:35 AM CDT 10:15 PM CDT
Moon 10:46 PM CDT (6/26) 9:19 AM CDT (6/26)
Length of Visible Light 15h 51m
Length of Day
14h 48m
Waning Gibbous, 85% of the Moon is Illuminated
Jun 26
Waning Gibbous
Jun 29
Last Quarter
Jul 8
New
Jul 15
First Quarter
Jul 22
Full

Hourly Weather History & Observations

Time (CDT) Temp. Heat Index Dew Point Humidity Pressure Visibility Wind Dir Wind Speed Gust Speed Precip Events Conditions
12:15 AM 80.6 °F 84.6 °F 71.8 °F 74% 29.93 in 10.0 mi SSW 8.1 mph - N/A   Clear
12:35 AM 79.9 °F - 71.4 °F 75% 29.94 in 10.0 mi SSW 5.8 mph - N/A   Clear
12:55 AM 79.3 °F - 71.1 °F 76% 29.93 in 10.0 mi South 5.8 mph - N/A   Clear
1:15 AM 78.1 °F - 71.1 °F 79% 29.93 in 10.0 mi South 4.6 mph - N/A   Clear
1:35 AM 78.8 °F - 70.7 °F 76% 29.92 in 10.0 mi SSW 6.9 mph - N/A   Clear
1:55 AM 78.3 °F - 70.7 °F 77% 29.92 in 10.0 mi South 4.6 mph - N/A   Clear
2:15 AM 77.2 °F - 70.3 °F 79% 29.92 in 10.0 mi South 5.8 mph - N/A   Clear
2:35 AM 76.6 °F - 70.7 °F 82% 29.92 in 10.0 mi SSE 4.6 mph - N/A   Clear
2:55 AM 75.2 °F - 71.1 °F 87% 29.91 in 7.0 mi SE 5.8 mph - N/A   Clear
3:15 AM 74.5 °F - 71.4 °F 90% 29.91 in 7.0 mi SE 4.6 mph - N/A   Clear
3:35 AM 74.5 °F - 71.2 °F 90% 29.91 in 7.0 mi SSE 4.6 mph - N/A   Clear
3:55 AM 73.9 °F - 71.1 °F 91% 29.90 in 7.0 mi Calm Calm - N/A   Clear
4:15 AM 73.4 °F - 70.7 °F 91% 29.90 in 7.0 mi South 4.6 mph - N/A   Clear
4:35 AM 73.4 °F - 70.7 °F 91% 29.90 in 7.0 mi South 6.9 mph - N/A   Clear
4:55 AM 74.3 °F - 70.7 °F 88% 29.90 in 10.0 mi South 5.8 mph - N/A   Clear
5:15 AM 73.9 °F - 70.3 °F 88% 29.90 in 10.0 mi South 8.1 mph - N/A   Clear
5:35 AM 73.8 °F - 70.2 °F 88% 29.90 in 10.0 mi South 5.8 mph - N/A   Clear
5:55 AM 73.8 °F - 70.0 °F 88% 29.91 in 7.0 mi South 5.8 mph - N/A   Clear
6:15 AM 75.2 °F - 70.3 °F 85% 29.91 in 10.0 mi South 6.9 mph - N/A   Clear
6:35 AM 77.0 °F - 70.0 °F 79% 29.91 in 10.0 mi South 10.4 mph - N/A   Clear
6:55 AM 77.9 °F - 70.0 °F 76% 29.90 in 10.0 mi South 9.2 mph - N/A   Clear
7:15 AM 78.8 °F - 70.0 °F 74% 29.91 in 10.0 mi South 8.1 mph - N/A   Scattered Clouds
7:35 AM 79.0 °F - 70.0 °F 74% 29.91 in 10.0 mi South 10.4 mph - N/A   Scattered Clouds
7:55 AM 79.5 °F - 70.2 °F 73% 29.91 in 10.0 mi SSW 8.1 mph - N/A   Scattered Clouds
8:15 AM 79.7 °F - 70.7 °F 74% 29.92 in 10.0 mi SSW 8.1 mph - N/A   Clear
8:35 AM 79.9 °F - 71.1 °F 74% 29.92 in 10.0 mi SSW 9.2 mph - N/A   Clear
8:55 AM 79.7 °F - 71.1 °F 75% 29.93 in 10.0 mi SSW 8.1 mph - N/A   Scattered Clouds
9:15 AM 79.2 °F - 71.4 °F 77% 29.93 in 10.0 mi SSW 6.9 mph - N/A Rain Light Rain
9:55 AM 77.0 °F - 73.6 °F 89% 29.86 in 7.0 mi South 10.4 mph - 0.06 in Rain Light Rain
10:15 AM 78.4 °F - 74.7 °F 88% 29.87 in 10.0 mi South 11.5 mph - N/A   Clear
10:35 AM 79.7 °F - 74.5 °F 84% 29.87 in 10.0 mi South 11.5 mph 16.1 mph N/A   Scattered Clouds
10:55 AM 80.6 °F 86.0 °F 75.0 °F 83% 29.86 in 10.0 mi South 12.7 mph - N/A   Scattered Clouds
11:15 AM 82.8 °F 89.8 °F 74.8 °F 77% 29.84 in 10.0 mi South 13.8 mph 18.4 mph N/A   Clear
11:35 AM 84.6 °F 92.4 °F 74.5 °F 72% 29.84 in 10.0 mi SSW 16.1 mph - N/A   Clear
11:55 AM 86.9 °F 95.4 °F 74.3 °F 66% 29.85 in 10.0 mi SW 16.1 mph 24.2 mph N/A   Clear
12:15 PM 86.2 °F 93.8 °F 73.4 °F 66% 29.85 in 10.0 mi SSW 17.3 mph 24.2 mph N/A   Scattered Clouds
12:35 PM 86.4 °F 94.2 °F 73.8 °F 66% 29.85 in 10.0 mi SSW 10.4 mph 17.3 mph N/A   Mostly Cloudy
12:55 PM 87.1 °F 94.5 °F 73.0 °F 63% 29.84 in 10.0 mi SSW 21.9 mph 25.3 mph N/A   Scattered Clouds
1:15 PM 87.3 °F 94.5 °F 73.0 °F 62% 29.84 in 10.0 mi SSW 21.9 mph - N/A   Scattered Clouds
1:35 PM 88.5 °F 96.8 °F 73.4 °F 61% 29.84 in 10.0 mi SSW 16.1 mph 25.3 mph N/A   Scattered Clouds
1:55 PM 90.1 °F 98.9 °F 73.6 °F 58% 29.83 in 10.0 mi SSW 21.9 mph 29.9 mph N/A   Clear
2:15 PM 89.8 °F 98.1 °F 73.4 °F 58% 29.81 in 10.0 mi SSW 19.6 mph 26.5 mph N/A   Scattered Clouds
2:35 PM 90.5 °F 98.6 °F 72.7 °F 56% 29.81 in 10.0 mi SW 23.0 mph 29.9 mph N/A   Clear
2:55 PM 91.0 °F 99.3 °F 72.9 °F 55% 29.80 in 10.0 mi SW 23.0 mph 31.1 mph N/A   Clear
3:15 PM 90.3 °F 98.7 °F 73.0 °F 57% 29.79 in 10.0 mi SSW 21.9 mph 28.8 mph N/A   Scattered Clouds
3:35 PM 91.4 °F 100.1 °F 73.2 °F 55% 29.77 in 10.0 mi SW 19.6 mph 25.3 mph N/A   Scattered Clouds
3:55 PM 91.8 °F 100.3 °F 73.0 °F 54% 29.76 in 10.0 mi SW 16.1 mph 27.6 mph N/A   Scattered Clouds
4:15 PM 90.9 °F 98.9 °F 72.9 °F 55% 29.77 in 10.0 mi SW 21.9 mph 27.6 mph N/A   Scattered Clouds
4:35 PM 89.1 °F 97.0 °F 72.9 °F 59% 29.76 in 10.0 mi SW 18.4 mph 24.2 mph N/A   Scattered Clouds
4:55 PM 87.8 °F 95.6 °F 73.4 °F 62% 29.75 in 10.0 mi SW 11.5 mph - N/A   Scattered Clouds
5:15 PM 86.9 °F 94.5 °F 73.6 °F 64% 29.76 in 10.0 mi SSW 9.2 mph 18.4 mph N/A   Scattered Clouds
5:35 PM 86.5 °F 94.6 °F 73.9 °F 66% 29.75 in 10.0 mi SSW 13.8 mph 21.9 mph N/A   Scattered Clouds
5:55 PM 86.2 °F 94.2 °F 74.1 °F 67% 29.75 in 10.0 mi SW 11.5 mph 17.3 mph N/A   Scattered Clouds
6:15 PM 86.0 °F 94.2 °F 74.3 °F 68% 29.73 in 10.0 mi SSW 10.4 mph - N/A   Scattered Clouds
6:35 PM 86.4 °F 94.6 °F 74.3 °F 67% 29.71 in 10.0 mi SSW 15.0 mph - N/A   Scattered Clouds
6:55 PM 87.4 °F 96.2 °F 74.3 °F 65% 29.70 in 10.0 mi SSW 9.2 mph 17.3 mph N/A   Clear
7:15 PM 86.5 °F 95.0 °F 74.3 °F 67% 29.72 in 10.0 mi SSW 12.7 mph - N/A   Clear
7:35 PM 85.6 °F 93.8 °F 74.3 °F 69% 29.70 in 10.0 mi SSW 15.0 mph 20.7 mph N/A   Clear
7:55 PM 85.5 °F 93.8 °F 74.7 °F 70% 29.70 in 10.0 mi SSW 9.2 mph 12.7 mph N/A Rain , Thunderstorm Thunderstorms and Rain
8:15 PM 81.0 °F 87.1 °F 75.6 °F 84% 29.72 in 7.0 mi WSW 15.0 mph 23.0 mph 0.06 in Rain , Thunderstorm Light Thunderstorms and Rain
8:35 PM 79.7 °F - 74.7 °F 84% 29.74 in 10.0 mi WSW 9.2 mph - 0.06 in   Clear
8:55 PM 79.2 °F - 73.4 °F 82% 29.76 in 10.0 mi WSW 10.4 mph 17.3 mph 0.06 in   Scattered Clouds
9:15 PM 78.1 °F - 73.4 °F 85% 29.78 in 10.0 mi West 4.6 mph - N/A Thunderstorm Scattered Clouds
9:35 PM 77.4 °F - 72.7 °F 85% 29.77 in 10.0 mi West 5.8 mph - N/A   Scattered Clouds
9:55 PM 76.8 °F - 72.7 °F 87% 29.79 in 10.0 mi Calm Calm - N/A   Scattered Clouds
10:15 PM 76.6 °F - 73.0 °F 89% 29.80 in 10.0 mi Calm Calm - N/A   Scattered Clouds
10:35 PM 75.6 °F - 72.7 °F 91% 29.80 in 10.0 mi SSE 4.6 mph - N/A   Clear
10:55 PM 75.6 °F - 72.5 °F 90% 29.79 in 10.0 mi Calm Calm - N/A   Clear
11:15 PM 75.2 °F - 72.7 °F 92% 29.81 in 10.0 mi WSW 4.6 mph - N/A   Scattered Clouds
11:35 PM 75.2 °F - 72.3 °F 91% 29.80 in 10.0 mi Calm Calm - N/A   Scattered Clouds
11:55 PM 75.2 °F - 72.5 °F 91% 29.80 in 10.0 mi Calm Calm - N/A   Clear